Weather History for LEMG - January, 2014

Change the Weather History Date:

Wednesday, January 15, 2014

  Actual Average Record
Temperature  
Mean Temperature 62 °F -  
Max Temperature 68 °F 60 °F 68 °F (2014)
Min Temperature 55 °F 44 °F 35 °F (2000)
Degree Days  
Heating Degree Days 4    
Growing Degree Days 12 (Base 50)    
Moisture  
Dew Point 50 °F    
Average Humidity 66    
Maximum Humidity 82    
Minimum Humidity 38    
Precipitation  
Precipitation 0.00 in 0.10 in - ()
Sea Level Pressure  
Sea Level Pressure 30.05 in    
Wind  
Wind Speed 11 mph ()    
Max Wind Speed 17 mph    
Max Gust Speed 28 mph    
Visibility 7.4 miles    
Events      
Averages and records for this station are not official NWS values.
T = Trace of Precipitation, MM = Missing Value Source: Averaged Metar Reports

Daily Weather History Graph

Daily Weather History Graph

Search for Another Location

Airport or City:

Trip Planner

Search our weather history database for the weather conditions in past years. The results will help you decide how hot, cold, wet, or windy it might be!

Date:

Astronomy

Jan. 15, 2014 Rise Set
Actual Time 8:29 AM CET 6:25 PM CET
Civil Twilight 8:01 AM CET 6:53 PM CET
Nautical Twilight 7:29 AM CET 7:25 PM CET
Astronomical Twilight 6:58 AM CET 7:56 PM CET
Moon 6:09 PM CET (1/15) 7:37 AM CET (1/15)
Length of Visible Light 10h 52m
Length of Day
9h 55m
Full, 100% of the Moon is Illuminated
Jan 15
Full
Jan 16
Full
Jan 24
Last Quarter
Jan 30
New
Feb 6
First Quarter

Hourly Weather History & Observations

Time (CET) Temp. Dew Point Humidity Pressure Visibility Wind Dir Wind Speed Gust Speed Precip Events Conditions
12:00 AM 58 °F 51 °F 69% 30.12 in - WNW 10.4 mph - -  
12:00 AM 59.0 °F 51.8 °F 77% 30.09 in 6.2 mi WNW 9.2 mph 21.9 mph N/A   Partly Cloudy
12:30 AM 59.0 °F 51.8 °F 77% 30.09 in 6.2 mi NW 11.5 mph - N/A   Partly Cloudy
1:00 AM 60 °F 51 °F 65% 30.11 in 9 mi WNW 10.4 mph - -   Scattered Clouds
1:00 AM 59.0 °F 51.8 °F 77% 30.09 in 6.2 mi WNW 9.2 mph - N/A   Partly Cloudy
1:30 AM 59.0 °F 51.8 °F 77% 30.09 in 6.2 mi NW 13.8 mph - N/A   Partly Cloudy
2:00 AM 59 °F 50 °F 65% 30.08 in - WNW 17.3 mph - -  
2:00 AM 59.0 °F 51.8 °F 77% 30.06 in 6.2 mi WNW 16.1 mph - N/A   Partly Cloudy
2:30 AM 57.2 °F 50.0 °F 77% 30.09 in - WNW 8.1 mph - N/A   Clear
3:00 AM 57 °F 50 °F 70% 30.09 in - WNW 11.5 mph - -  
3:00 AM 57.2 °F 50.0 °F 77% 30.06 in - WNW 11.5 mph - N/A   Clear
3:30 AM 57.2 °F 50.0 °F 77% 30.09 in 6.2 mi WNW 12.7 mph - N/A   Partly Cloudy
4:00 AM 58 °F 50 °F 66% 30.08 in 9 mi NW 15.0 mph - -   Scattered Clouds
4:00 AM 57.2 °F 50.0 °F 77% 30.06 in 6.2 mi NW 15.0 mph - N/A   Partly Cloudy
4:30 AM 55.4 °F 50.0 °F 82% 30.06 in 6.2 mi WNW 9.2 mph - N/A   Partly Cloudy
5:00 AM 57 °F 49 °F 68% 30.08 in - WNW 15.0 mph - -  
5:00 AM 57.2 °F 50.0 °F 77% 30.06 in 6.2 mi WNW 16.1 mph 27.6 mph N/A   Partly Cloudy
5:30 AM 57.2 °F 50.0 °F 77% 30.06 in 6.2 mi WNW 15.0 mph - N/A   Partly Cloudy
6:00 AM 57 °F 49 °F 67% 30.07 in - WNW 15.0 mph - -  
6:00 AM 57.2 °F 50.0 °F 77% 30.06 in 6.2 mi WNW 12.7 mph - N/A   Partly Cloudy
6:30 AM 57.2 °F 50.0 °F 77% 30.06 in 6.2 mi WNW 12.7 mph - N/A   Partly Cloudy
7:00 AM 56 °F 49 °F 69% 30.07 in 9 mi WNW 16.1 mph - -   Scattered Clouds
7:00 AM 55.4 °F 48.2 °F 77% 30.06 in 6.2 mi WNW 16.1 mph - N/A   Partly Cloudy
7:30 AM 55.4 °F 48.2 °F 77% 30.06 in 6.2 mi WNW 17.3 mph - N/A   Partly Cloudy
8:00 AM 57 °F 49 °F 66% 30.08 in - WNW 13.8 mph - -  
8:00 AM 57.2 °F 50.0 °F 77% 30.06 in 6.2 mi WNW 12.7 mph - N/A   Partly Cloudy
8:30 AM 57.2 °F 50.0 °F 77% 30.06 in 6.2 mi WNW 17.3 mph - N/A   Partly Cloudy
9:00 AM 57 °F 49 °F 65% 30.10 in - WNW 15.0 mph - -  
9:00 AM 57.2 °F 50.0 °F 77% 30.09 in 6.2 mi WNW 15.0 mph - N/A   Partly Cloudy
9:30 AM 57.2 °F 50.0 °F 77% 30.09 in 6.2 mi WNW 12.7 mph - N/A   Partly Cloudy
10:00 AM 59 °F 49 °F 60% 30.11 in 16 mi WNW 16.1 mph - -   Scattered Clouds
10:00 AM 57.2 °F 50.0 °F 77% 30.09 in 6.2 mi WNW 15.0 mph - N/A   Partly Cloudy
10:30 AM 59.0 °F 50.0 °F 72% 30.09 in 6.2 mi WNW 12.7 mph - N/A   Partly Cloudy
11:00 AM 61 °F 49 °F 56% 30.11 in - WNW 15.0 mph - -  
11:00 AM 59.0 °F 50.0 °F 72% 30.09 in 6.2 mi WNW 15.0 mph - N/A   Partly Cloudy
11:30 AM 60.8 °F 50.0 °F 68% 30.09 in 6.2 mi WNW 11.5 mph - N/A   Partly Cloudy
12:00 PM 64 °F 49 °F 48% 30.10 in - WNW 13.8 mph - -  
12:00 PM 62.6 °F 50.0 °F 63% 30.09 in 6.2 mi WNW 13.8 mph - N/A   Partly Cloudy
12:30 PM 62.6 °F 50.0 °F 63% 30.06 in 6.2 mi West 13.8 mph - N/A   Partly Cloudy
1:00 PM 65 °F 49 °F 46% 30.07 in 19 mi West 13.8 mph - -   Scattered Clouds
1:00 PM 64.4 °F 48.2 °F 56% 30.06 in 6.2 mi West 12.7 mph - N/A   Partly Cloudy
1:30 PM 64.4 °F 50.0 °F 59% 30.04 in 6.2 mi West 11.5 mph - N/A   Partly Cloudy
2:00 PM 66 °F 49 °F 43% 30.04 in - West 11.5 mph - -  
2:00 PM 64.4 °F 50.0 °F 59% 30.04 in 6.2 mi West 10.4 mph - N/A   Partly Cloudy
2:30 PM 66.2 °F 50.0 °F 56% 30.04 in 6.2 mi West 10.4 mph - N/A   Partly Cloudy
3:00 PM 67 °F 48 °F 40% 30.03 in - West 10.4 mph - -  
3:00 PM 66.2 °F 50.0 °F 56% 30.01 in 6.2 mi West 9.2 mph - N/A   Partly Cloudy
3:30 PM 66.2 °F 48.2 °F 52% 30.01 in 6.2 mi West 10.4 mph - N/A   Partly Cloudy
4:00 PM 68 °F 48 °F 38% 30.01 in 19 mi WNW 9.2 mph - -   Scattered Clouds
4:00 PM 66.2 °F 50.0 °F 56% 30.01 in 6.2 mi WNW 9.2 mph - N/A   Partly Cloudy
4:30 PM 66.2 °F 50.0 °F 56% 30.01 in - West 6.9 mph - N/A   Clear
5:00 PM 68 °F 49 °F 40% 30.01 in - West 6.9 mph - -  
5:00 PM 66.2 °F 48.2 °F 52% 30.01 in - West 8.1 mph - N/A   Clear
5:30 PM 66.2 °F 50.0 °F 56% 30.01 in 6.2 mi West 3.5 mph - N/A   Partly Cloudy
6:00 PM 65 °F 49 °F 46% 30.01 in - WSW 3.5 mph - -  
6:00 PM 64.4 °F 50.0 °F 59% 30.01 in 6.2 mi Variable 2.3 mph - N/A   Partly Cloudy
6:30 PM 62.6 °F 50.0 °F 63% 30.01 in 6.2 mi Variable 2.3 mph - N/A   Partly Cloudy
7:00 PM 62 °F 50 °F 55% 30.02 in 16 mi West 11.5 mph - -   Scattered Clouds
7:00 PM 60.8 °F 50.0 °F 68% 30.01 in 6.2 mi WNW 10.4 mph - N/A   Partly Cloudy
7:30 PM 60.8 °F 50.0 °F 68% 30.01 in 6.2 mi WNW 12.7 mph - N/A   Partly Cloudy
8:00 PM 60 °F 49 °F 58% 30.04 in - WNW 12.7 mph - -  
8:00 PM 59.0 °F 50.0 °F 72% 30.04 in 6.2 mi WNW 12.7 mph - N/A   Partly Cloudy
8:30 PM 57.2 °F 50.0 °F 77% 30.04 in 6.2 mi WNW 10.4 mph - N/A   Partly Cloudy
9:00 PM 58 °F 50 °F 66% 30.04 in - WNW 12.7 mph - -  
9:00 PM 57.2 °F 50.0 °F 77% 30.01 in 6.2 mi WNW 12.7 mph - N/A   Partly Cloudy
9:30 PM 57.2 °F 50.0 °F 77% 30.01 in 6.2 mi WNW 10.4 mph - N/A   Partly Cloudy
10:00 PM 59 °F 49 °F 59% 30.02 in 12 mi West 12.7 mph - -   Scattered Clouds
10:00 PM 57.2 °F 48.2 °F 72% 30.01 in 6.2 mi WNW 11.5 mph - N/A   Partly Cloudy
10:30 PM 57.2 °F 48.2 °F 72% 30.01 in 6.2 mi West 12.7 mph - N/A   Partly Cloudy
11:00 PM 58 °F 47 °F 58% 30.01 in - West 11.5 mph - -  
11:00 PM 57.2 °F 46.4 °F 67% 30.01 in - West 11.5 mph - N/A   Clear
11:30 PM 57.2 °F 46.4 °F 67% 30.01 in - West 11.5 mph - N/A   Clear